Showing default

MORELOS 3, 40946

Orbit data source: Space-Track

MORELOS 3, 40946 is a payload satellite owned by AEMX (MX) in GEO that was launched on Fri, 02 Oct 2015 UTC via an ATLAS V 421 launch vehicle from the Air Force Eastern Test Range (AFETR). Payload-class satellites include a variety of spacecraft equipped with specific instruments for various scientific and technological missions. These include communications satellites like Starlink; space stations such as the ISS; scientific satellites like the Hubble; Earth observation satellites from companies like Planet Labs, Umbra, and HawkEye 360; GPS; miniature CubeSats for education and research; and military/defense satellites.

Loading next visibility...
Identifier
40946, 2015-056A
Orbit
GEO
Country
Flag of MXMX / MEX
Related business
Manufacturer
Boeing/ES
Mission
Operational Civil Communications
Bus & Motor
BSS-702HP, R-4D
Mass
~5,400 kg wet, ~2,800 kg dry
Launch date (UTC)
2015-10-02 (10 years ago)
Launch vehicle
ATLAS V 421
Launch site
Air Force Eastern Test Range (AFETR)
Object type
Payload
Rocket body
Debris
Shape & HBR
Box + 2 Pan + 1 Dish, 20.5 m
Radar Cross Section
62.043 m², Large (>1 m²)

Expand to show TLE details & history
Last TLE update: 8 hours ago

TLE from 8 hours ago
0 MORELOS 3
1 40946U 15056A   25242.93210250 -.00000038  00000-0  00000-0 0  9999
2 40946   3.0112   6.3519 0003077 183.9701  11.4884  1.00272115 36376
Epoch: 2025-08-30T22:22Z
TLE epoch observation values (Epoch: 2025-08-30T22:22:13.655Z)
Latitude
-0.7883°
Longitude
-113.12436°
Altitude
35,773.379 km
Speed
3.076 km/s
True Right ascension
13h 27m 10s
True Declination
0° 47' 15"
Sunlit
Object was in daylight at epoch
Visualization orbit readout
Latitude
Unknown
Longitude
Unknown
Altitude
Unknown
Speed
Unknown
Apparent Right ascension
Unknown
Apparent Declination
Unknown
Sunlit
N/A
Visualization observer readout
Local Sidereal Time
22:22:01
Azimuth
Unknown
Elevation
Unknown
Doppler factor
Unknown
Orbital elements
Apogee altitude
35,800.543 km
Perigee altitude
35,774.594 km
Semi-major axis
42,165.706 km
Eccentricity
0.00031
Inclination
3.0112°
RAAN
6.3519°
Arg. of periapsis
183.9701°
True anomaly
11.49543°
Mean anomaly
11.4884°
Eccentric anomaly
11.49191°
Mean motion
0.25067 °/min
Orbital period
1,436.15 mins
BSTAR
0
Loading maneuver chart data...
Computing Atmospheric mass density...
Loading historical data...
Loading historical data...
Loading historical data...
Loading historical data...
Loading historical data...
Loading historical data...
Loading historical data...
Other satellites on launch #56 in the year 2015 (2015-10-02 UTC)

Documentation

Showing up to 5 results
|